If you wish to contribute or participate in the discussions about articles you are invited to join SKYbrary as a registered user

 Actions

Solenzara (BA 126) Air Base

From SKYbrary Wiki

LFKS
Airport
ICAO: LFKS – IATA: SOZ
Summary
Name Solenzara (BA 126) Air Base
Region Europe
Territory France FR.gif
Location , Corse
Serving Solenzara
Elevation 8.534 m
28 ft
28 ft8.534 m
Type medium airport
Coordinates 41° 55' 27.90" N, 9° 24' 21.60" E
Runways
Designator Length Width Surface ROPS
18/36 2627 m8,618.766 ft
45 m147.638 ft
CON /


METAR
Observation LFKS 220930Z AUTO 14006KT 100V180 CAVOK 28/21 Q1021
Station Solenzara
Date/Time 22 July 2019 09:30:00
Wind direction 140°
Wind speed 06 kts
Lowest cloud amount clouds and visibility OK
Temperature 28°C
Dew point 21°C
Humidity 65%
QNH 1021 hPa
Weather condition n/a